Weather in Turov

Belarus     52°03′58″N   27°44′26″E
temp.,
°C
wind,
m/s
gust,
m/s
humid.,
%
clouds,
%
prec.,
mm/h
press.,
hPa
HPBL,
m
16 april, fri
fri1600:00+7nw2599100 5.1 1011238
03:00+7ssw1299100 13.3 1010122
06:00+7ene119494 0.6 101032
09:00+9e359098 0.6 1010429
12:00+9sse3489100 0.5 1011425
15:00+8sse2489100 1.9 1012436
18:00+8s228991 0.3 1012279
21:00+7ssw229499 0.4 1013112
17 april, sat
sat1700:00+7nne0093100 0.2 101423
03:00+7ene119683 0.4 101530
06:00+7w1196100 0.2 101514
09:00+9ne128782 0.9 1016280
12:00+11ese447265 2.7 10171006
15:00+13ese335287 3.3 10181780
18:00+12e2463100 0.1 1018211
21:00+9s117374 0.1 101811
18 april, sun
sun1800:00+7w41091100 0.0 1018274
03:00+7w4989100 0.0 1017302
06:00+7wnw3891100 0.1 1016344
09:00+7e468726 0.4 1018532
12:00+11e45595 0.0 10181059
15:00+13ne244818 0.0 10181719
18:00+11e576297 0.0 1018674
21:00+9ene227014 0.0 101936
19 april, mon
mon1900:00+6nne26875 0.0 1019128
03:00+5ne259692 0.0 1019128
06:00+4nne259820 0.0 1019117
09:00+8ne2583100 0.0 1019414
12:00+7n3580100 0.2 1016766
15:00+7n3484100 0.2 1015870
18:00+8nnw338392 0.1 1014683
21:00+6nw1291100 0.1 101385
20 april, tue
tue2000:00+6nw239399 0.1 1012120
03:00+5n249299 0.1 1009155
06:00+5nnw249299 0.0 1007132
09:00+7n357724 0.0 1005504
12:00+11nnw5658100 0.0 10031473
15:00+9nnw5972100 0.0 1001960
18:00+10nw696964 0.2 10001239
21:00+7wnw61274100 0.3 1000716